[[{"header":{"parameterUnit":"m.s-1","parameterCategory":1,"la1":30.2991,"la2":30.254,"lo1":-89.0895,"lo2":-89.0444,"dy":0.0017,"dx":0.0017,"nx":28,"ny":28,"refTime":"2023-09-18T09:00:00:Z","depth":0,"parameterNumber":2,"parameterNumberName":"U-component_of_WINDS"},"data":[0,0,0,0,0,0,0,0,0,0,0,0,0,0,0,0,0,0,0,0,0,0,0,0,0,0,0,0,0,0,0,0,0,0,0,0,0,0,0,0,0,0,0,0,0,0,0,0,0,0,0,0,0,0,0,0,0,0,-2.1677,-2.1677,0,-2.171,-2.1711,-2.1711,-2.1605,-2.1601,-2.1598,-2.1595,-2.163,-2.1634,-2.1637,0,0,0,0,0,0,0,0,0,0,0,0,0,-2.1522,-2.1525,-2.1677,-2.1678,-2.1678,-2.171,-2.1711,-2.1711,-2.1605,-2.1601,-2.1597,-2.1594,-2.1628,-2.1633,-2.1638,0,0,0,0,0,0,0,0,0,0,0,0,0,-2.1575,-2.1526,-2.1677,-2.1629,-2.1625,-2.171,-2.1711,-2.1711,-2.1606,-2.1601,-2.1596,-2.1592,-2.1627,-2.1633,-2.1638,-2.1772,0,0,-2.1656,-2.1659,0,0,0,0,0,0,0,0,-2.1573,-2.1581,-2.1636,-2.1632,-2.1628,-2.1648,-2.1668,-2.1732,-2.1607,-2.1613,-2.1595,-2.1589,-2.164,-2.1644,-2.1661,-2.1773,-2.1775,-2.1657,-2.1661,-2.1663,-2.1665,0,0,0,0,0,0,0,-2.1569,-2.1579,-2.169,-2.1636,-2.1632,-2.1605,-2.1608,-2.168,-2.1653,-2.1612,-2.1605,-2.161,-2.1637,-2.1656,-2.1661,-2.1775,-2.1657,-2.1662,-2.1666,-2.1668,-2.1997,-2.2002,0,0,0,0,0,0,-2.1571,-2.1577,-2.1689,-2.1691,-2.1588,-2.1612,-2.1615,-2.1647,-2.1652,-2.1648,-2.1614,-2.1605,-2.1648,-2.1655,-2.1662,-2.1818,-2.1663,-2.1669,-2.1672,-2.1992,-2.1998,-2.2004,0,0,0,0,0,0,-2.1569,-2.1582,-2.1688,-2.1632,-2.1643,-2.162,-2.1657,-2.165,-2.1669,-2.1654,-2.1648,-2.1638,-2.1645,-2.1654,-2.1745,-2.1818,-2.1671,-2.1677,-2.1986,-2.1994,-2.2001,-2.2132,0,0,0,0,0,0,-2.1565,-2.1582,-2.1633,-2.1634,-2.1647,-2.1771,-2.1661,-2.1654,-2.1679,-2.1667,-2.1675,-2.1672,-2.1641,-2.1737,-2.1751,-2.1823,-2.1681,-2.1979,-2.199,-2.1999,-2.2121,-2.2143,-2.2162,0,0,0,0,0,-2.1559,-2.1669,-2.1636,-2.165,-2.171,-2.1775,-2.1783,-2.1746,-2.1685,-2.1736,-2.1726,-2.1671,-2.1807,-2.1747,-2.1762,-2.1837,-2.1975,-2.1987,-2.1998,-2.2112,-2.2139,-2.2162,0,0,0,0,0,0,-2.1678,-2.1668,-2.1632,-2.1745,-2.1762,-2.1757,-2.182,-2.1775,-2.181,-2.1798,-2.175,-2.1753,-2.1853,-2.1854,-2.1787,-2.1966,-2.1881,-2.1896,-2.1962,-2.1988,-2.2008,-2.2006,-2.1686,0,0,0,0,0,-2.1717,-2.1771,-2.1759,-2.186,-2.187,-2.1844,-2.1871,-2.1841,-2.1857,-2.1863,-2.186,-2.1877,-2.1924,-2.1955,-2.1997,-2.212,-2.212,-2.2179,-2.22,-2.2217,-2.2231,-2.2295,-2.2322,-2.2043,-2.2042,-2.2042,0,0,-2.1798,-2.18,-2.1837,-2.1884,-2.1893,-2.195,-2.1851,-2.1915,-2.1957,-2.1873,-2.1959,-2.1957,-2.1973,-2.2081,-2.2128,-2.2085,-2.2308,-2.2232,-2.2246,-2.225,-2.231,-2.2337,-2.236,-2.2051,-2.2049,-2.2048,0,0,-2.1976,-2.1983,-2.2067,-2.2078,-2.2094,-2.2075,-2.2095,-2.2098,-2.2093,-2.2178,-2.2116,-2.2165,-2.2246,-2.226,-2.2278,-2.2459,-2.241,-2.2474,-2.2582,-2.2646,-2.2668,-2.2687,-2.2752,-2.2776,-2.2488,-2.2488,-2.2488,0,-2.2076,-2.2159,-2.2116,-2.2185,-2.2207,-2.2133,-2.2218,-2.2231,-2.2259,-2.2276,-2.2227,-2.2327,-2.2333,-2.2442,-2.2486,-2.2503,-2.2524,-2.2474,-2.2668,-2.2687,-2.2704,-2.2765,-2.279,-2.2496,-2.2495,-2.2494,-2.2493,0,-2.2281,-2.234,-2.2406,-2.2435,-2.2464,-2.2541,-2.2509,-2.2544,-2.2511,-2.2498,-2.2585,-2.2589,-2.263,-2.2653,-2.2622,-2.2758,-2.2731,-2.2676,-2.2589,-2.2739,-2.2796,-2.2819,-2.2507,-2.2504,-2.2502,-2.25,0,0,-2.2536,-2.2539,-2.2564,-2.2576,-2.2587,-2.2631,-2.2704,-2.2743,-2.2774,-2.2796,-2.2856,-2.2925,-2.2874,-2.2894,-2.2863,-2.2919,-2.3062,-2.2856,-2.2856,-2.2895,-2.3213,-2.3255,-2.3283,-2.3029,-2.3033,-2.3037,-2.3211,0,-2.2711,-2.2836,-2.2799,-2.2924,-2.2977,-2.2907,-2.297,-2.2983,-2.2972,-2.3015,-2.3003,-2.3053,-2.2981,-2.2993,-2.3045,-2.3034,-2.3125,-2.3021,-2.3084,-2.3087,-2.3084,-2.3312,-2.3357,-2.3522,-2.3233,-2.3237,-2.324,0,-2.2933,-2.2963,-2.3094,-2.3094,-2.3115,-2.3173,-2.3206,-2.3248,-2.3261,-2.3249,-2.3271,-2.3228,-2.3299,-2.3211,-2.3308,-2.3238,-2.3261,-2.326,-2.3265,-2.3271,-2.3174,-2.3325,-2.3574,-2.3599,-2.3274,-2.3271,-2.3269,0,-2.3107,-2.3179,-2.3267,-2.3279,-2.3282,-2.3324,-2.3327,-2.3335,-2.3361,-2.339,-2.3406,-2.3443,-2.3463,-2.3492,-2.346,-2.3399,-2.3562,-2.3471,-2.3554,-2.3555,-2.3593,-2.3591,-2.385,-2.3607,-2.3606,-2.3606,-2.3605,0,-2.3307,-2.339,-2.3345,-2.3399,-2.3489,-2.3445,-2.3535,-2.353,-2.3538,-2.3589,-2.353,-2.358,-2.3534,-2.3579,-2.3554,-2.3638,-2.3647,-2.364,-2.3632,-2.3646,-2.3647,-2.3661,-2.3649,-2.3612,-2.3611,-2.361,-2.3609,0,-2.3517,-2.349,-2.3581,-2.3575,-2.3576,-2.3643,-2.3638,-2.3688,-2.3671,-2.3737,-2.375,-2.3725,-2.3775,-2.3746,-2.3797,-2.378,-2.3889,-2.3866,-2.3885,-2.3879,-2.3964,-2.3957,-2.4242,-2.4277,-2.4011,-2.4013,-2.4016,0,-2.3647,-2.3709,-2.371,-2.374,-2.3747,-2.3797,-2.3822,-2.378,-2.381,-2.3829,-2.3876,-2.392,-2.3954,-2.4037,-2.4024,-2.4062,-2.404,-2.4137,-2.4045,-2.4056,-2.4042,-2.4039,-2.4045,-2.4156,-2.4159,-2.4162,-2.4164,0,-2.3881,-2.3864,-2.3904,-2.3939,-2.3971,-2.3997,-2.4017,-2.4045,-2.4003,-2.4039,-2.4089,-2.4115,-2.4167,-2.4212,-2.4244,-2.4247,-2.4199,-2.4192,-2.4214,-2.4229,-2.4237,-2.4234,-2.3937,-2.4186,-2.4184,-2.4183,-2.4181,-2.418,-2.4056,-2.4107,-2.4116,-2.4161,-2.4172,-2.4192,-2.4238,-2.4228,-2.4269,-2.4307,-2.428,-2.4339,-2.4349,-2.4388,-2.4396,-2.4442,-2.4403,-2.4434,-2.4441,-2.445,-2.4462,-2.4229,-2.4448,-2.4447,-2.4446,-2.4446,-2.4445,0,-2.4287,-2.4289,-2.4331,-2.4361,-2.4397,-2.4347,-2.4367,-2.44,-2.4453,-2.4467,-2.4501,-2.4558,-2.4601,-2.459,-2.4629,-2.4667,-2.4646,-2.4679,-2.4676,-2.4678,-2.4494,-2.4473,-2.4696,-2.4695,-2.4695,-2.4695,-2.4695,-2.4695,-2.4412,-2.4496,-2.448,-2.4569,-2.457,-2.4627,-2.4643,-2.4661,-2.4671,-2.4738,-2.4773,-2.4765,-2.4769,-2.4807,-2.4844,-2.484,-2.4857,-2.4898,-2.4886,-2.4715,-2.4691,-2.4667,-2.4646,-2.4902,-2.4902,-2.5065,-2.5067,-2.5068]},{"header":{"parameterUnit":"m.s-1","parameterCategory":1,"la1":30.2991,"la2":30.254,"lo1":-89.0895,"lo2":-89.0444,"dy":0.0017,"dx":0.0017,"nx":28,"ny":28,"refTime":"2023-09-18T09:00:00:Z","depth":0,"parameterNumber":3,"parameterNumberName":"V-component_of_WINDS"},"data":[0,0,0,0,0,0,0,0,0,0,0,0,0,0,0,0,0,0,0,0,0,0,0,0,0,0,0,0,0,0,0,0,0,0,0,0,0,0,0,0,0,0,0,0,0,0,0,0,0,0,0,0,0,0,0,0,0,0,-3.0857,-3.0858,0,-3.0943,-3.0944,-3.0945,-3.0924,-3.0922,-3.0921,-3.0919,-3.1003,-3.1007,-3.1011,0,0,0,0,0,0,0,0,0,0,0,0,0,-3.067,-3.0674,-3.0856,-3.0858,-3.0859,-3.0942,-3.0944,-3.0945,-3.0924,-3.0922,-3.092,-3.0918,-3.1002,-3.1007,-3.1011,0,0,0,0,0,0,0,0,0,0,0,0,0,-3.0753,-3.0675,-3.0856,-3.0859,-3.086,-3.0942,-3.0944,-3.0945,-3.0925,-3.0922,-3.092,-3.0917,-3.1001,-3.1006,-3.1012,-3.1096,0,0,-3.1029,-3.1032,0,0,0,0,0,0,0,0,-3.0748,-3.076,-3.0857,-3.0859,-3.086,-3.092,-3.0909,-3.0996,-3.0925,-3.09,-3.0919,-3.0916,-3.0977,-3.0985,-3.1006,-3.11,-3.1104,-3.103,-3.1033,-3.1036,-3.1037,0,0,0,0,0,0,0,-3.0743,-3.0756,-3.089,-3.0859,-3.086,-3.0854,-3.0863,-3.0925,-3.0951,-3.0902,-3.0901,-3.0911,-3.0978,-3.1001,-3.1008,-3.1105,-3.103,-3.1035,-3.1038,-3.104,-3.1271,-3.1274,0,0,0,0,0,0,-3.0736,-3.0751,-3.0888,-3.0893,-3.0797,-3.0859,-3.0869,-3.0903,-3.0951,-3.0956,-3.0913,-3.091,-3.0992,-3.1002,-3.1011,-3.1112,-3.1035,-3.1041,-3.1044,-3.1268,-3.1272,-3.1275,0,0,0,0,0,0,-3.0732,-3.0749,-3.0884,-3.0822,-3.0839,-3.0865,-3.0903,-3.0906,-3.0929,-3.0959,-3.0963,-3.0933,-3.0991,-3.1003,-3.1075,-3.1115,-3.1043,-3.1049,-3.1265,-3.1269,-3.1273,-3.1316,0,0,0,0,0,0,-3.0727,-3.0747,-3.0781,-3.0823,-3.0842,-3.0948,-3.0906,-3.091,-3.094,-3.0936,-3.0978,-3.0983,-3.099,-3.1067,-3.1081,-3.1121,-3.1053,-3.1262,-3.1267,-3.1272,-3.1311,-3.1321,-3.1329,0,0,0,0,0,-3.0721,-3.0789,-3.0783,-3.0799,-3.0885,-3.0951,-3.0962,-3.0969,-3.0943,-3.0976,-3.0995,-3.0982,-3.1108,-3.1074,-3.109,-3.1133,-3.1259,-3.1266,-3.1271,-3.1307,-3.1319,-3.1329,0,0,0,0,0,0,-3.075,-3.0794,-3.0788,-3.0872,-3.0908,-3.0947,-3.0989,-3.0982,-3.1025,-3.102,-3.1026,-3.1036,-3.1109,-3.1128,-3.109,-3.1216,-3.118,-3.1189,-3.1201,-3.1213,-3.1222,-3.1216,-3.1058,0,0,0,0,0,-3.0766,-3.0817,-3.0853,-3.0924,-3.0942,-3.0963,-3.0992,-3.0995,-3.1031,-3.1046,-3.107,-3.1105,-3.1153,-3.1184,-3.123,-3.1314,-3.1322,-3.1351,-3.136,-3.1367,-3.1375,-3.142,-3.1433,-3.1295,-3.1295,-3.1295,0,0,-3.08,-3.0831,-3.0863,-3.0931,-3.0959,-3.101,-3.0976,-3.1032,-3.1069,-3.1054,-3.1124,-3.1143,-3.1182,-3.1261,-3.1296,-3.1279,-3.1415,-3.1375,-3.1381,-3.1385,-3.1427,-3.144,-3.1452,-3.1299,-3.1298,-3.1298,0,0,-3.0888,-3.0917,-3.0979,-3.1008,-3.1051,-3.1064,-3.1079,-3.112,-3.1132,-3.1202,-3.1192,-3.1236,-3.1318,-3.1346,-3.1371,-3.147,-3.1458,-3.1484,-3.1532,-3.1575,-3.1586,-3.1596,-3.163,-3.1642,-3.1492,-3.1492,-3.1492,0,-3.0925,-3.1004,-3.1011,-3.1069,-3.1098,-3.1088,-3.1149,-3.1176,-3.1232,-3.1252,-3.1232,-3.1334,-3.136,-3.1444,-3.1468,-3.1489,-3.1505,-3.1479,-3.1584,-3.1594,-3.1603,-3.1636,-3.1649,-3.1495,-3.1495,-3.1494,-3.1494,0,-3.1046,-3.11,-3.1145,-3.1199,-3.1234,-3.1293,-3.1309,-3.1342,-3.1342,-3.1357,-3.1427,-3.1458,-3.1509,-3.1529,-3.1529,-3.1614,-3.1601,-3.1583,-3.1546,-3.1619,-3.165,-3.1662,-3.1499,-3.1498,-3.1497,-3.1497,0,0,-3.1155,-3.1213,-3.1229,-3.1254,-3.13,-3.1342,-3.14,-3.1451,-3.1479,-3.1517,-3.1565,-3.1635,-3.1618,-3.1646,-3.1649,-3.1687,-3.1762,-3.1664,-3.1665,-3.168,-3.1855,-3.1868,-3.1883,-3.1755,-3.1757,-3.1759,-3.1852,0,-3.1246,-3.135,-3.1359,-3.1451,-3.1501,-3.1491,-3.1541,-3.1575,-3.159,-3.1633,-3.1649,-3.1698,-3.1672,-3.1689,-3.1727,-3.1745,-3.1797,-3.1738,-3.1798,-3.18,-3.1788,-3.1899,-3.1913,-3.1999,-3.1864,-3.1866,-3.1867,0,-3.1368,-3.1411,-3.1508,-3.1547,-3.1568,-3.1614,-3.1661,-3.1703,-3.1739,-3.1747,-3.1779,-3.1777,-3.1834,-3.1796,-3.1875,-3.1835,-3.186,-3.1872,-3.1876,-3.1881,-3.1838,-3.1906,-3.2027,-3.2039,-3.1886,-3.1885,-3.1884,0,-3.1436,-3.1518,-3.1587,-3.1609,-3.1656,-3.1688,-3.1709,-3.1743,-3.1773,-3.1814,-3.1833,-3.1879,-3.1904,-3.194,-3.1949,-3.192,-3.2028,-3.199,-3.2035,-3.2035,-3.2057,-3.2056,-3.2182,-3.2075,-3.2074,-3.2074,-3.2074,0,-3.1538,-3.1598,-3.1619,-3.1661,-3.1727,-3.1736,-3.1801,-3.182,-3.1851,-3.1895,-3.1889,-3.1931,-3.1941,-3.1985,-3.1992,-3.2056,-3.2067,-3.2074,-3.2076,-3.2075,-3.2074,-3.2091,-3.2085,-3.2078,-3.2077,-3.2076,-3.2076,0,-3.1625,-3.1642,-3.1717,-3.1756,-3.1767,-3.1814,-3.1846,-3.1886,-3.19,-3.1957,-3.197,-3.1992,-3.2043,-3.2056,-3.2116,-3.2121,-3.2196,-3.2192,-3.2184,-3.2184,-3.2227,-3.2223,-3.2369,-3.2388,-3.2268,-3.2269,-3.227,0,-3.1689,-3.1735,-3.1779,-3.1809,-3.1831,-3.188,-3.1911,-3.192,-3.1952,-3.1997,-3.2031,-3.2081,-3.2122,-3.2203,-3.2223,-3.2269,-3.2265,-3.2313,-3.2272,-3.2269,-3.2265,-3.2262,-3.2266,-3.2321,-3.2322,-3.2323,-3.2324,0,-3.1799,-3.1805,-3.185,-3.1898,-3.1935,-3.1973,-3.2009,-3.2034,-3.2048,-3.2084,-3.2136,-3.2168,-3.2229,-3.2279,-3.2325,-3.2344,-3.2336,-3.2337,-3.2349,-3.2349,-3.2342,-3.2345,-3.2205,-3.2333,-3.2332,-3.2332,-3.2331,-3.2331,-3.1876,-3.1916,-3.1953,-3.2003,-3.2032,-3.2066,-3.2105,-3.2124,-3.2168,-3.222,-3.2223,-3.2279,-3.2313,-3.2375,-3.2397,-3.244,-3.2426,-3.2444,-3.2449,-3.2453,-3.2456,-3.2336,-3.2449,-3.2448,-3.2448,-3.2448,-3.2448,0,-3.1985,-3.2009,-3.2055,-3.2106,-3.2145,-3.2135,-3.2174,-3.2207,-3.2257,-3.2291,-3.2331,-3.239,-3.2438,-3.2462,-3.2509,-3.2539,-3.2536,-3.2551,-3.2548,-3.2553,-3.2467,-3.2451,-3.2552,-3.2552,-3.2552,-3.2552,-3.2552,-3.2552,-3.2047,-3.2114,-3.2124,-3.2204,-3.2227,-3.2283,-3.2306,-3.2337,-3.2364,-3.2431,-3.2471,-3.2486,-3.2516,-3.2564,-3.2607,-3.2613,-3.263,-3.2646,-3.265,-3.257,-3.2559,-3.2549,-3.2534,-3.265,-3.265,-3.2732,-3.2733,-3.2733]}]]